sat.trackr.live / text

‹ back to catalog

IRIDIUM 146

NORAD 43254 · 2018-030F

PAYLOAD ACTIVE UNKNOWN

§ Identity

Operator
Country
US
Launch date
2018-03-30
Launch site
AFWTR
Launch vehicle
Mass (kg)
RCS (m²)

Purposes: comms

External: N2YO · Heavens-Above · Gunter

§ Orbital elements

Epoch: 2026-05-25T03:35:51.364320Z

Period
100.40 min
Inclination
86.3939°
Eccentricity
0.0002048
Mean motion
14.34218132 rev/d
Perigee alt
776.2 km
Apogee alt
779.1 km
Semi-major
7,155.8 km
B*
3.8704e-5
RAAN
300.0534°
Arg perigee
91.4518°
Mean anomaly
268.6912°
Rev number
42,683

§ Raw data

IRIDIUM 1461 43254U 18030F   26145.14990005  .00000128  00000+0  38704-4 0  99922 43254  86.3939 300.0534 0002048  91.4518 268.6912 14.34218132426831

JSON: /api/v1/satellites/43254 · /tle

For live sub-satellite position, see the globe view (requires WebGL).

§ Visibility from observer

Set your observer location to see the next 7 days of passes ≥ 10°. The values pass through the URL so the page stays shareable.

No JS? Fill the form by hand. The geolocation button needs JavaScript.